STARLINK-1681, 46559

Orbit data source: Space-Track

STARLINK-1681, 46559 is a payload satellite owned by SpaceX/Seattle (US) in LEO that was launched on Tue, 06 Oct 2020 UTC via an FALCON 9 launch vehicle from the Air Force Eastern Test Range (AFETR). Payload-class satellites include a variety of spacecraft equipped with specific instruments for various scientific and technological missions. These include communications satellites like Starlink; space stations such as the ISS; scientific satellites like the Hubble; Earth observation satellites from companies like Planet Labs, Umbra, and HawkEye 360; GPS; miniature CubeSats for education and research; and military/defense satellites.

Loading next visibility...
Identifier
46559, 2020-070AD
Orbit
LEO
Country
Flag of USUS
Related business
Manufacturer
SpaceX/Seattle
Mission
Partially operational Commercial Communications
Bus & Motor
STARLINK, Unknown motor
Mass
260 kg wet, ~248 kg dry
Launch date (UTC)
2020-10-06 (5 years ago)
Launch vehicle
FALCON 9
Launch site
Air Force Eastern Test Range (AFETR)
Object type
Payload
Rocket body
Debris
Shape & HBR
Box + 1 Pan, 10.1 m
Radar Cross Section
13.562 m², Large (>1 m²)

Expand to show TLE details & history
Last TLE update: 19 hours ago

TLE from 19 hours ago
0 STARLINK-1681
1 46559U 20070AD  25303.54239771  .00100885  00000-0  25781-2 0  9996
2 46559  53.0621 343.6387 0011639 326.1695  33.8565 15.38602211280698
Epoch: 2025-10-30T13:01Z
TLE epoch observation values (Epoch: 2025-10-30T13:01:03.162Z)
Latitude
0.00004°
Longitude
109.27586°
Altitude
444.537 km
Speed
7.65 km/s
True Right ascension
22h 54m 33s
True Declination
0° 00' 00"
Sunlit
Object was in full shadow at epoch
Visualization orbit readout
Latitude
Unknown
Longitude
Unknown
Altitude
Unknown
Speed
Unknown
Apparent Right ascension
Unknown
Apparent Declination
Unknown
Sunlit
N/A
Visualization observer readout
Local Sidereal Time
03:52:00
Azimuth
Unknown
Elevation
Unknown
Doppler factor
Unknown
Orbital elements
Apogee altitude
458.463 km
Perigee altitude
442.567 km
Semi-major axis
6,828.652 km
Eccentricity
0.00116
Inclination
53.0621°
RAAN
343.6387°
Arg. of periapsis
326.1695°
True anomaly
33.93089°
Mean anomaly
33.8565°
Eccentric anomaly
33.89369°
Mean motion
3.84628 °/min
Orbital period
93.6 mins
BSTAR
0.0025781
Loading maneuver chart data...
Computing Atmospheric mass density...
Loading historical data...
Loading historical data...
Loading historical data...
Loading historical data...
Loading historical data...
Loading historical data...
Loading historical data...

Documentation

Showing up to 5 results
|